Date String (YYYY-MM-DD hh:mm:ss) UTC,Instrument flags,absolute air pressure of the measurement (hPa),sample flow rate (lpm),inlet stack bypass flow (lpm),air temperature of the measurement (°C),ambient temperature measured by the external sensor (°C),aerosol sample conditioner tube jacket temperature (°C),OPC LED temperature (°C),internal box temperature (°C),relative humidity of the measurement (%),span deviation,mass concentration of particles derived from Lorenz-Mie calculation of OPC scattering (μg/m³),mass concentration of particles derived from Lorenz-Mie calculation of OPC scattering (μg/m³),mass concentration of particles derived from Lorenz-Mie calculation of OPC scattering (μg/m³)
DateTimeUTC,F1_M11,P_M11,Q1_M11,Q2_M11,T1_M11,T2_M11,T3_M11,T4_M11,T5_M11,U1_M11,ZSPAN_M11,X0_M11,X2_M11,X1_M11
2024-03-25 18:00:00,SystemResetWarning,0818.4,5.00,000.00,018.2,017.3,000.0,027.1,020.1,13.9,0000.0,0010.04,0006.90,0006.72
2024-03-25 18:01:00,SystemResetWarning,0818.5,5.01,000.00,018.4,018.6,000.0,027.2,020.9,13.8,0000.0,0010.02,0006.91,0006.73
2024-03-25 18:02:00,SystemResetWarning,0818.5,4.98,000.00,018.7,019.1,000.0,027.2,021.1,13.8,0000.0,0009.96,0006.95,0006.76
2024-03-25 18:03:00,SystemResetWarning,0818.5,5.00,000.00,018.8,018.9,000.0,027.1,020.9,13.5,0000.0,0009.99,0006.97,0006.78
2024-03-25 18:04:00,SystemResetWarning,0818.4,5.01,000.00,018.7,018.6,000.0,027.1,020.7,13.5,0000.0,0009.53,0007.01,0006.81
2024-03-25 18:05:00,SystemResetWarning,0818.4,5.00,000.00,018.7,018.4,000.0,027.1,020.5,13.5,0000.0,0010.05,0007.03,0006.82
2024-03-25 18:06:00,SystemResetWarning,0818.4,5.00,000.00,018.7,018.2,000.0,027.1,020.4,13.6,0000.0,0010.26,0007.04,0006.83
2024-03-25 18:07:00,SystemResetWarning,0818.4,5.00,000.00,018.6,018.1,000.0,027.1,020.3,13.5,0000.0,0010.32,0007.05,0006.84
2024-03-25 18:08:00,SystemResetWarning,0818.4,5.00,000.00,018.6,017.9,000.0,027.1,020.3,13.5,0000.0,0010.33,0007.06,0006.85
2024-03-25 18:09:00,SystemResetWarning,0818.4,5.00,000.00,018.5,017.9,000.0,027.1,020.2,13.8,0000.0,0010.34,0007.08,0006.87
2024-03-25 18:10:00,SystemResetWarning,0818.4,5.00,000.00,018.5,017.8,000.0,027.1,020.2,13.7,0000.0,0010.48,0007.08,0006.87
2024-03-25 18:11:00,SystemResetWarning,0818.4,5.02,000.00,018.5,017.7,000.0,027.1,020.1,13.6,0000.0,0009.96,0007.08,0006.88
2024-03-25 18:12:00,SystemResetWarning,0818.4,4.99,000.00,018.4,017.7,000.0,027.1,020.1,13.8,0000.0,0009.95,0007.10,0006.90
2024-03-25 18:13:00,SystemResetWarning,0818.4,4.99,000.00,018.4,017.6,000.0,027.1,020.1,13.8,0000.0,0009.94,0007.10,0006.90
2024-03-25 18:14:00,SystemResetWarning,0818.4,5.00,000.00,018.4,017.6,000.0,027.1,020.0,13.9,0000.0,0009.87,0007.10,0006.90
2024-03-25 18:15:00,SystemResetWarning,0818.3,5.01,000.00,018.3,017.6,000.0,027.0,020.0,13.6,0000.0,0009.87,0007.10,0006.90
2024-03-25 18:16:00,SystemResetWarning,0818.3,5.00,000.00,018.3,017.6,000.0,027.0,020.0,13.8,0000.0,0009.58,0007.14,0006.91
2024-03-25 18:17:00,SystemResetWarning,0818.3,5.00,000.00,018.3,017.5,000.0,027.0,020.0,13.9,0000.0,0009.35,0007.17,0006.92
2024-03-25 18:18:00,SystemResetWarning,0818.3,4.99,000.00,018.3,017.5,000.0,027.0,020.0,14.0,0000.0,0009.24,0007.16,0006.92
2024-03-25 18:19:00,SystemResetWarning,0818.3,4.99,000.00,018.3,017.5,000.0,027.0,020.0,14.3,0000.0,0009.69,0007.16,0006.93
2024-03-25 18:20:00,SystemResetWarning,0818.4,5.01,000.00,018.3,017.5,000.0,027.0,020.0,14.2,0000.0,0010.61,0007.16,0006.94
2024-03-25 18:21:00,SystemResetWarning,0818.4,5.00,000.00,018.3,017.5,000.0,027.0,020.0,13.7,0000.0,0010.78,0007.19,0006.96
2024-03-25 18:22:00,SystemResetWarning,0818.4,5.00,000.00,018.3,017.5,000.0,027.0,020.0,13.3,0000.0,0010.84,0007.20,0006.96
2024-03-25 18:23:00,SystemResetWarning,0818.3,5.00,000.00,018.3,017.5,000.0,027.0,020.0,13.6,0000.0,0010.90,0007.23,0006.96
2024-03-25 18:24:00,SystemResetWarning,0818.3,5.00,000.00,018.3,017.5,000.0,027.0,020.0,14.0,0000.0,0011.02,0007.26,0006.96
2024-03-25 18:25:00,SystemResetWarning,0818.3,5.01,000.00,018.3,017.5,000.0,027.0,020.0,13.7,0000.0,0011.03,0007.25,0006.97
2024-03-25 18:26:00,SystemResetWarning,0818.4,5.01,000.00,018.2,017.5,000.0,027.0,020.0,13.5,0000.0,0010.96,0007.22,0006.96
2024-03-25 18:27:00,SystemResetWarning,0818.3,5.00,000.00,018.2,017.5,000.0,026.9,020.0,13.4,0000.0,0010.92,0007.18,0006.94
2024-03-25 18:28:00,SystemResetWarning,0818.3,4.99,000.00,018.2,017.5,000.0,026.9,020.0,13.6,0000.0,0010.87,0007.18,0006.94
2024-03-25 18:29:00,SystemResetWarning,0818.3,5.00,000.00,018.2,017.6,000.0,026.9,020.0,13.7,0000.0,0010.95,0007.21,0006.95
2024-03-25 18:30:00,SystemResetWarning,0818.3,5.02,000.00,018.2,017.6,000.0,026.9,020.0,13.9,0000.0,0010.51,0007.23,0006.95
2024-03-25 18:31:00,SystemResetWarning,0818.3,5.00,000.00,018.2,017.6,000.0,026.9,020.0,13.8,0000.0,0009.56,0007.22,0006.94
2024-03-25 18:32:00,SystemResetWarning,0818.3,4.99,000.00,018.2,017.6,000.0,026.9,020.0,13.9,0000.0,0009.26,0007.21,0006.94
2024-03-25 18:33:00,SystemResetWarning,0818.3,4.99,000.00,018.3,017.6,000.0,026.9,020.0,13.3,0000.0,0009.17,0007.20,0006.95
2024-03-25 18:34:00,SystemResetWarning,0818.3,4.99,000.00,018.3,017.6,000.0,026.9,020.0,13.2,0000.0,0009.08,0007.16,0006.94
2024-03-25 18:35:00,SystemResetWarning,0818.3,5.00,000.00,018.3,017.6,000.0,026.9,020.0,13.1,0000.0,0008.94,0007.12,0006.94
2024-03-25 18:36:00,SystemResetWarning,0818.3,5.00,000.00,018.3,017.7,000.0,026.9,020.0,13.1,0000.0,0008.87,0007.12,0006.93
2024-03-25 18:37:00,SystemResetWarning,0818.3,5.00,000.00,018.3,017.7,000.0,026.9,020.0,13.1,0000.0,0008.88,0007.11,0006.93
2024-03-25 18:38:00,SystemResetWarning,0818.3,5.00,000.00,018.3,017.7,000.0,026.9,020.0,13.1,0000.0,0009.63,0007.14,0006.95
2024-03-25 18:39:00,SystemResetWarning,0818.3,5.00,000.00,018.3,017.7,000.0,026.9,020.0,13.1,0000.0,0009.59,0007.15,0006.97
2024-03-25 18:40:00,SystemResetWarning,0818.3,5.00,000.00,018.3,017.7,000.0,026.9,020.0,13.1,0000.0,0009.60,0007.15,0006.98
2024-03-25 18:41:00,SystemResetWarning,0818.3,5.01,000.00,018.3,017.7,000.0,026.9,020.0,13.1,0000.0,0009.58,0007.15,0006.99
2024-03-25 18:42:00,SystemResetWarning,0818.3,5.01,000.00,018.3,017.7,000.0,026.9,020.0,12.5,0000.0,0009.57,0007.16,0007.00
2024-03-25 18:43:00,SystemResetWarning,0818.3,4.99,000.00,018.3,017.7,000.0,026.8,020.0,12.6,0000.0,0009.54,0007.16,0007.00
2024-03-25 18:44:00,SystemResetWarning,0818.3,4.99,000.00,018.3,017.7,000.0,026.8,020.0,13.2,0000.0,0009.56,0007.17,0007.02
2024-03-25 18:45:00,SystemResetWarning,0818.3,5.01,000.00,018.3,017.7,000.0,026.8,020.0,13.3,0000.0,0009.66,0007.21,0007.05
2024-03-25 18:46:00,SystemResetWarning,0818.3,5.00,000.00,018.3,017.7,000.0,026.8,020.0,13.2,0000.0,0009.74,0007.26,0007.08
2024-03-25 18:47:00,SystemResetWarning,0818.3,4.99,000.00,018.3,017.7,000.0,026.8,020.0,13.2,0000.0,0009.77,0007.28,0007.11
2024-03-25 18:48:00,SystemResetWarning,0818.3,5.00,000.00,018.3,017.7,000.0,026.8,020.0,13.2,0000.0,0009.79,0007.31,0007.16
2024-03-25 18:49:00,SystemResetWarning,0818.3,5.00,000.00,018.3,017.7,000.0,026.8,020.0,13.4,0000.0,0009.14,0007.35,0007.19
2024-03-25 18:50:00,SystemResetWarning,0818.3,5.00,000.00,018.3,017.7,000.0,026.8,020.0,13.4,0000.0,0009.16,0007.36,0007.21
2024-03-25 18:51:00,SystemResetWarning,0818.3,5.01,000.00,018.3,017.8,000.0,026.8,020.1,13.4,0000.0,0009.45,0007.38,0007.24
2024-03-25 18:52:00,SystemResetWarning,0818.3,5.00,000.00,018.3,017.8,000.0,026.8,020.1,13.4,0000.0,0009.48,0007.41,0007.26
2024-03-25 18:53:00,SystemResetWarning,0818.3,5.00,000.00,018.3,017.9,000.0,026.8,020.1,13.3,0000.0,0009.49,0007.42,0007.27
2024-03-25 18:54:00,SystemResetWarning,0818.3,5.00,000.00,018.3,017.9,000.0,026.8,020.1,12.8,0000.0,0009.57,0007.47,0007.29
2024-03-25 18:55:00,SystemResetWarning,0818.3,4.99,000.00,018.3,017.9,000.0,026.8,020.1,12.7,0000.0,0009.56,0007.47,0007.29
2024-03-25 18:56:00,SystemResetWarning,0818.3,5.00,000.00,018.4,017.9,000.0,026.8,020.1,12.8,0000.0,0009.50,0007.47,0007.28
2024-03-25 18:57:00,SystemResetWarning,0818.3,5.01,000.00,018.4,017.9,000.0,026.9,020.1,12.9,0000.0,0009.49,0007.46,0007.27
2024-03-25 18:58:00,SystemResetWarning,0818.4,5.00,000.00,018.4,017.9,000.0,026.9,020.2,13.2,0000.0,0009.51,0007.47,0007.26
2024-03-25 18:59:00,SystemResetWarning,0818.4,5.01,000.00,018.4,018.0,000.0,026.9,020.2,13.3,0000.0,0009.52,0007.46,0007.24
